When you browse on this site, cookies collect data to enhance your experience and personalize the content and advertising you see.
Visit our Privacy Policy to learn more. By continuing to use the site, you agree to this use of cookies and data.
  • In Hungary
  • List of Countries
  • For 7 days
  • Water Temperature
  • Satellite Maps
  • Weather Map
  • News
  • Weather Widgets
  • user-avatar
    Login

    Hourly Weather Podcerkwy

    Today, 22 May, Wednesday

    Time Temperature Precipitation Wind Pressure Humidity
    00:00 +13°C° 0 mm 2 mps 740 mmHg 94%
    01:00 +13°C° 0 mm 2 mps 740 mmHg 95%
    02:00 +12°C° 0 mm 2 mps 740 mmHg 96%
    03:00 +11°C° 0 mm 3 mps 740 mmHg 96%
    04:00 +11°C° 0 mm 3 mps 740 mmHg 95%
    05:00 +11°C° 0 mm 3 mps 740 mmHg 95%
    06:00 +12°C° 0 mm 3 mps 740 mmHg 88%
    07:00 +14°C° 0 mm 4 mps 740 mmHg 82%
    08:00 +15°C° 0 mm 4 mps 740 mmHg 75%
    09:00 +18°C° 0.1 mm 4 mps 740 mmHg 73%
    10:00 +19°C° 0.1 mm 4 mps 740 mmHg 70%
    11:00 +20°C° 0.1 mm 4 mps 740 mmHg 67%
    12:00 +20°C° 0.6 mm 4 mps 740 mmHg 69%
    13:00 +20°C° 0.6 mm 4 mps 740 mmHg 70%
    14:00 +20°C° 0.6 mm 4 mps 740 mmHg 72%
    15:00 +20°C° 0.4 mm 4 mps 740 mmHg 71%
    16:00 +21°C° 0.4 mm 3 mps 740 mmHg 70%
    17:00 +21°C° 0.4 mm 3 mps 740 mmHg 70%
    18:00 +19°C° 0.1 mm 3 mps 740 mmHg 75%
    19:00 +18°C° 0.1 mm 2 mps 740 mmHg 81%
    20:00 +17°C° 0.1 mm 2 mps 740 mmHg 86%
    21:00 +16°C° 0 mm 2 mps 740 mmHg 88%
    22:00 +15°C° 0 mm 1 mps 740 mmHg 90%
    23:00 +15°C° 0 mm 1 mps 740 mmHg 92%

    Tomorrow, 23 May, Thursday

    Time Temperature Precipitation Wind Pressure Humidity
    00:00 +14°C° 0 mm 1 mps 741 mmHg 93%
    01:00 +14°C° 0 mm 1 mps 741 mmHg 93%
    02:00 +13°C° 0 mm 1 mps 741 mmHg 94%
    03:00 +13°C° 0 mm 1 mps 741 mmHg 94%
    04:00 +13°C° 0 mm 1 mps 741 mmHg 94%
    05:00 +13°C° 0 mm 1 mps 741 mmHg 95%
    06:00 +15°C° 0 mm 1 mps 742 mmHg 88%
    07:00 +18°C° 0 mm 1 mps 742 mmHg 81%
    08:00 +20°C° 0 mm 1 mps 742 mmHg 74%
    09:00 +20°C° 0 mm 0 mps 742 mmHg 68%
    10:00 +22°C° 0 mm 0 mps 742 mmHg 62%
    11:00 +23°C° 0 mm 0 mps 742 mmHg 55%
    12:00 +25°C° 0.3 mm 1 mps 742 mmHg 56%
    13:00 +25°C° 0.3 mm 1 mps 742 mmHg 58%
    14:00 +24°C° 0.3 mm 2 mps 742 mmHg 59%
    15:00 +24°C° 0.2 mm 2 mps 742 mmHg 61%
    16:00 +24°C° 0.2 mm 3 mps 742 mmHg 63%
    17:00 +23°C° 0.2 mm 4 mps 742 mmHg 65%
    18:00 +21°C° 0.2 mm 3 mps 742 mmHg 72%
    19:00 +20°C° 0.2 mm 3 mps 742 mmHg 80%
    20:00 +18°C° 0.2 mm 3 mps 742 mmHg 87%
    21:00 +17°C° 0.1 mm 3 mps 742 mmHg 90%
    22:00 +16°C° 0.1 mm 3 mps 743 mmHg 93%
    23:00 +14°C° 0.1 mm 4 mps 743 mmHg 96%

    Day after tomorrow, 24 May, Friday

    Time Temperature Precipitation Wind Pressure Humidity
    00:00 +14°C° 0 mm 4 mps 743 mmHg 95%
    01:00 +13°C° 0 mm 4 mps 743 mmHg 95%
    02:00 +13°C° 0 mm 4 mps 743 mmHg 94%
    03:00 +13°C° 0 mm 3 mps 743 mmHg 94%
    04:00 +12°C° 0 mm 3 mps 743 mmHg 93%
    05:00 +12°C° 0 mm 3 mps 743 mmHg 93%
    06:00 +12°C° 0 mm 3 mps 743 mmHg 92%
    07:00 +13°C° 0 mm 3 mps 743 mmHg 91%
    08:00 +13°C° 0 mm 3 mps 743 mmHg 90%
    09:00 +14°C° 0 mm 3 mps 743 mmHg 87%
    10:00 +14°C° 0 mm 3 mps 743 mmHg 84%
    11:00 +16°C° 0 mm 3 mps 743 mmHg 81%
    12:00 +17°C° 0 mm 3 mps 743 mmHg 80%
    13:00 +17°C° 0 mm 3 mps 743 mmHg 79%
    14:00 +18°C° 0 mm 3 mps 743 mmHg 78%
    15:00 +18°C° 0 mm 3 mps 743 mmHg 77%
    16:00 +18°C° 0 mm 3 mps 743 mmHg 77%
    17:00 +19°C° 0 mm 4 mps 742 mmHg 76%
    18:00 +18°C° 0 mm 4 mps 742 mmHg 77%
    19:00 +17°C° 0 mm 3 mps 742 mmHg 79%
    20:00 +17°C° 0 mm 3 mps 742 mmHg 80%
    21:00 +16°C° 0 mm 3 mps 743 mmHg 81%
    22:00 +13°C° 0 mm 3 mps 743 mmHg 82%
    23:00 +12°C° 0 mm 3 mps 743 mmHg 82%

    25 May, Saturday

    Time Temperature Precipitation Wind Pressure Humidity
    00:00 +12°C° 0 mm 3 mps 743 mmHg 81%
    01:00 +11°C° 0 mm 3 mps 743 mmHg 80%
    02:00 +10°C° 0 mm 3 mps 743 mmHg 78%
    03:00 +10°C° 0 mm 2 mps 743 mmHg 79%
    04:00 +9°C° 0 mm 2 mps 743 mmHg 79%
    05:00 +8°C° 0 mm 2 mps 743 mmHg 80%
    06:00 +12°C° 0 mm 2 mps 743 mmHg 75%
    07:00 +14°C° 0 mm 2 mps 743 mmHg 70%
    08:00 +16°C° 0 mm 2 mps 743 mmHg 65%
    09:00 +17°C° 0 mm 2 mps 743 mmHg 63%
    10:00 +19°C° 0 mm 3 mps 743 mmHg 61%
    11:00 +20°C° 0 mm 3 mps 743 mmHg 59%
    12:00 +21°C° 0.2 mm 4 mps 742 mmHg 58%
    13:00 +21°C° 0.2 mm 5 mps 742 mmHg 56%
    14:00 +22°C° 0.2 mm 5 mps 742 mmHg 54%
    15:00 +21°C° 0.1 mm 5 mps 742 mmHg 57%
    16:00 +20°C° 0.1 mm 5 mps 742 mmHg 60%
    17:00 +19°C° 0.1 mm 5 mps 742 mmHg 63%
    18:00 +18°C° 0 mm 4 mps 742 mmHg 68%
    19:00 +17°C° 0 mm 4 mps 742 mmHg 72%
    20:00 +15°C° 0 mm 4 mps 742 mmHg 76%
    21:00 +13°C° 0 mm 3 mps 742 mmHg 82%
    22:00 +13°C° 0 mm 2 mps 743 mmHg 87%
    23:00 +12°C° 0 mm 2 mps 743 mmHg 93%

    26 May, Sunday

    Time Temperature Precipitation Wind Pressure Humidity
    00:00 +10°C° 0 mm 2 mps 743 mmHg 94%
    01:00 +9°C° 0 mm 2 mps 743 mmHg 94%
    02:00 +9°C° 0 mm 2 mps 743 mmHg 95%
    03:00 +9°C° 0 mm 3 mps 743 mmHg 92%
    04:00 +9°C° 0 mm 3 mps 743 mmHg 90%
    05:00 +9°C° 0 mm 3 mps 743 mmHg 87%
    06:00 +10°C° 0 mm 4 mps 742 mmHg 83%
    07:00 +10°C° 0 mm 4 mps 742 mmHg 78%
    08:00 +10°C° 0 mm 5 mps 742 mmHg 74%
    09:00 +12°C° 0.1 mm 5 mps 742 mmHg 72%
    10:00 +13°C° 0.1 mm 5 mps 742 mmHg 71%
    11:00 +14°C° 0.1 mm 6 mps 742 mmHg 69%
    12:00 +13°C° 0.2 mm 6 mps 742 mmHg 71%
    13:00 +13°C° 0.2 mm 6 mps 742 mmHg 73%
    14:00 +13°C° 0.2 mm 6 mps 742 mmHg 75%
    15:00 +13°C° 0.2 mm 6 mps 741 mmHg 75%
    16:00 +11°C° 0.2 mm 6 mps 741 mmHg 74%
    17:00 +11°C° 0.2 mm 6 mps 741 mmHg 73%
    18:00 +11°C° 0.1 mm 6 mps 741 mmHg 75%
    19:00 +10°C° 0.1 mm 5 mps 741 mmHg 77%
    20:00 +11°C° 0.1 mm 4 mps 741 mmHg 78%
    21:00 +10°C° 0.1 mm 4 mps 741 mmHg 80%
    22:00 +8°C° 0.1 mm 4 mps 742 mmHg 82%
    23:00 +8°C° 0.1 mm 4 mps 742 mmHg 84%

    27 May, Monday

    Time Temperature Precipitation Wind Pressure Humidity
    00:00 +8°C° 0 mm 3 mps 742 mmHg 84%
    01:00 +8°C° 0 mm 3 mps 742 mmHg 85%
    02:00 +7°C° 0 mm 3 mps 742 mmHg 85%
    03:00 +7°C° 0 mm 3 mps 743 mmHg 86%
    04:00 +5°C° 0 mm 3 mps 743 mmHg 87%
    05:00 +5°C° 0 mm 3 mps 743 mmHg 88%
    06:00 +7°C° 0 mm 3 mps 743 mmHg 80%
    07:00 +8°C° 0 mm 4 mps 743 mmHg 73%
    08:00 +11°C° 0 mm 4 mps 743 mmHg 66%
    09:00 +12°C° 0 mm 4 mps 744 mmHg 62%
    10:00 +14°C° 0 mm 4 mps 744 mmHg 58%
    11:00 +15°C° 0 mm 4 mps 744 mmHg 54%
    12:00 +17°C° 0 mm 4 mps 743 mmHg 57%
    13:00 +18°C° 0 mm 4 mps 743 mmHg 60%
    14:00 +19°C° 0 mm 4 mps 743 mmHg 63%
    15:00 +19°C° 0 mm 4 mps 742 mmHg 63%
    16:00 +20°C° 0 mm 4 mps 742 mmHg 62%
    17:00 +20°C° 0 mm 4 mps 742 mmHg 62%
    18:00 +19°C° 0.1 mm 4 mps 741 mmHg 68%
    19:00 +18°C° 0.1 mm 4 mps 741 mmHg 74%
    20:00 +17°C° 0.1 mm 4 mps 741 mmHg 80%
    21:00 +17°C° 1 mm 4 mps 741 mmHg 85%
    22:00 +15°C° 1 mm 4 mps 741 mmHg 89%
    23:00 +15°C° 1 mm 4 mps 741 mmHg 93%
    Show more